STARLINK-32714, 62499

Orbit data source: Space-Track

STARLINK-32714, 62499 is a payload satellite owned by SpaceX/Seattle (US) in LEO that was launched on Mon, 06 Jan 2025 UTC via an FALCON 9 launch vehicle from the Air Force Eastern Test Range (AFETR). Payload-class satellites include a variety of spacecraft equipped with specific instruments for various scientific and technological missions. These include communications satellites like Starlink; space stations such as the ISS; scientific satellites like the Hubble; Earth observation satellites from companies like Planet Labs, Umbra, and HawkEye 360; GPS; miniature CubeSats for education and research; and military/defense satellites.

Loading next visibility...
Identifier
62499, 2025-003N
Orbit
LEO
Country
Flag of USUS
Related business
Manufacturer
SpaceX/Seattle
Mission
Operational Commercial Communications
Bus & Motor
STARLINK V2M, Unknown motor
Mass
730 kg wet, ~700 kg dry
Launch date (UTC)
2025-01-06 (1 year ago)
Launch vehicle
FALCON 9
Launch site
Air Force Eastern Test Range (AFETR)
Object type
Payload
Rocket body
Debris
Shape & HBR
Box + 2 Pan, 17.7 m
Radar Cross Section
33.884 m², Large (>1 m²)

Expand to show TLE details & history
Last TLE update: 1 day ago

TLE from 1 day ago
0 STARLINK-32714
1 62499U 25003N   26170.73291776  .00017422  00000-0  64077-3 0  9991
2 62499  43.0015  73.0393 0001332 275.8980  84.1719 15.27598006 82270
Epoch: 2026-06-19T17:35Z
TLE epoch observation values (Epoch: 2026-06-19T17:35:24.094Z)
Latitude
-0.00007°
Longitude
-98.76883°
Altitude
482.678 km
Speed
7.626 km/s
True Right ascension
04h 52m 09s
True Declination
0° 00' 00"
Sunlit
Object was in daylight at epoch
Visualization orbit readout
Latitude
Unknown
Longitude
Unknown
Altitude
Unknown
Speed
Unknown
Apparent Right ascension
Unknown
Apparent Declination
Unknown
Sunlit
N/A
Visualization observer readout
Local Sidereal Time
08:33:23
Azimuth
Unknown
Elevation
Unknown
Doppler factor
Unknown
Orbital elements
Apogee altitude
485.854 km
Perigee altitude
484.026 km
Semi-major axis
6,863.077 km
Eccentricity
0.00013
Inclination
43.0015°
RAAN
73.0393°
Arg. of periapsis
275.898°
True anomaly
84.18708°
Mean anomaly
84.1719°
Eccentric anomaly
84.17949°
Mean motion
3.81738 °/min
Orbital period
94.31 mins
BSTAR
0.00064077
Loading maneuver chart data...
Computing Atmospheric mass density...
Loading historical data...
Loading historical data...
Loading historical data...
Loading historical data...
Loading historical data...
Loading historical data...
Loading historical data...

Documentation

Showing up to 5 results
|